Terminal Aerodrome Forecast
Issued by NWS

Home | Current Version | Previous Version | Text Only | Print | Product List | Glossary Off
Versions: 1 2 3 4 5 6 7 8 9 10 11 12 13 14 15

000
FTUS42 KMHX 292320
TAFOAJ
TAF
KOAJ 292320Z 3000/3024 VRB03KT P6SM FEW200
     FM301200 22012KT P6SM VCSH OVC050
     FM301700 25013G20KT P6SM -SHRA OVC010
      AMD LTD TO CLD VIS AND WIND=

USA.gov is the U.S. government's official web portal to all federal, state and local government web resources and services.